EW7157 Weather Reports


time (UTC)temp
C
wind
direction
speed
KPH
gust
KPH
rain 1hr
cm
rain 24hr
cm
rain mn
cm
humidity
%
barometer
mb
20260904215922 26 180 0.0 0.0 0.00 0.08 0.05 71 1033.1
20260904214924 27 180 0.0 3.2 0.00 0.08 0.05 69 1033.3
20260904214022 27 180 0.0 0.0 0.00 0.08 0.05 69 1033.2
20260904213023 27 180 0.0 0.0 0.00 0.08 0.05 67 1033.3
20260904212121 27 180 0.0 0.0 0.00 0.08 0.05 65 1033.2
20260904211124 28 135 0.0 0.0 0.00 0.08 0.05 65 1033.2
20260904210124 28 156 0.0 0.0 0.00 0.08 0.05 64 1033.1
20260904205123 29 180 0.0 0.0 0.00 0.08 0.05 63 1033.0
20260904204121 29 180 0.0 0.0 0.00 0.08 0.05 61 1033.0
20260904203123 30 135 0.0 0.0 0.00 0.08 0.05 61 1033.1
20260904202222 30 135 0.0 0.0 0.00 0.08 0.05 61 1033.2
20260904201221 29 180 0.0 0.0 0.00 0.08 0.05 60 1033.3
20260904200222 29 90 0.0 0.0 0.00 0.08 0.05 60 1033.3
20260904194322 31 183 1.6 4.8 0.00 0.08 0.05 55 1033.7
20260904193321 31 180 0.0 0.0 0.00 0.08 0.05 55 1033.8
20260904192323 31 135 0.0 0.0 0.00 0.08 0.05 53 1034.0
20260904191324 31 180 0.0 0.0 0.00 0.08 0.05 53 1034.0
20260904190323 31 132 0.0 1.6 0.00 0.08 0.05 54 1034.2
20260904185322 31 157 0.0 3.2 0.00 0.08 0.05 55 1034.2
20260904184325 30 165 0.0 4.8 0.00 0.08 0.05 57 1034.3
20260904183422 30 135 0.0 0.0 0.00 0.08 0.05 61 1034.5
20260904182424 28 135 0.0 3.2 0.00 0.08 0.05 64 1034.6
20260904181522 27 157 0.0 0.0 0.00 0.08 0.05 68 1034.4
20260904181438 27 157 0.0 0.0 0.00 0.08 0.05 69 1034.4
20260904181322 27 157 0.0 0.0 0.00 0.08 0.05 69 1034.4
20260904175323 27 180 0.0 0.0 0.00 0.08 0.05 70 1034.6
20260904174322 27 225 0.0 0.0 0.00 0.08 0.05 68 1034.5
20260904173322 28 225 0.0 0.0 0.00 0.08 0.05 67 1034.7
20260904172323 28 225 0.0 0.0 0.00 0.08 0.05 65 1034.6
20260904172240 28 225 0.0 0.0 0.00 0.08 0.05 66 1034.7
20260904171125 28 225 0.0 0.0 0.00 0.08 0.05 66 1034.5
20260904170221 28 225 0.0 0.0 0.00 0.08 0.05 64 1034.8
20260904165223 28 180 0.0 0.0 0.00 0.08 0.05 63 1034.7
20260904165123 28 180 0.0 0.0 0.00 0.08 0.05 63 1034.8
20260904163122 30 180 0.0 0.0 0.00 0.08 0.05 60 1034.9
20260904163022 30 180 0.0 0.0 0.00 0.08 0.05 59 1034.7
20260904162022 30 135 0.0 0.0 0.00 0.08 0.05 57 1034.9
20260904161121 30 135 0.0 0.0 0.00 0.08 0.05 57 1034.8
20260904160122 30 194 0.0 3.2 0.00 0.08 0.05 58 1034.9
20260904155122 30 135 0.0 0.0 0.00 0.08 0.05 57 1034.9
20260904155024 30 135 0.0 0.0 0.00 0.08 0.05 57 1034.9
20260904153140 30 152 0.0 3.2 0.05 0.08 0.05 58 1035.0
20260904153022 30 156 0.0 0.0 0.05 0.08 0.05 57 1035.0
20260904152022 30 180 0.0 0.0 0.05 0.08 0.05 57 1035.0
20260904150921 30 180 0.0 1.6 0.05 0.08 0.05 59 1035.1
20260904144922 29 180 0.0 0.0 0.05 0.08 0.05 62 1035.0
20260904144824 29 180 0.0 0.0 0.05 0.08 0.05 63 1035.1
20260904143823 29 166 0.0 0.0 0.05 0.08 0.03 63 1034.9
20260904142823 28 177 0.0 0.0 0.00 0.03 0.00 64 1034.9
20260904141922 28 135 0.0 3.2 0.00 0.03 0.00 63 1034.8
20260904140824 28 157 0.0 3.2 0.00 0.03 0.00 68 1034.8
20260904135822 27 157 0.0 3.2 0.00 0.03 0.00 70 1034.7
20260904133821 26 156 1.6 6.4 0.00 0.03 0.00 75 1034.8
20260904132822 25 135 0.0 0.0 0.00 0.03 0.00 78 1034.8
20260904131822 24 122 0.0 6.4 0.00 0.03 0.00 80 1034.8
20260904130823 23 157 0.0 0.0 0.00 0.03 0.00 82 1034.9
20260904125824 23 135 0.0 0.0 0.00 0.03 0.00 82 1034.8
20260904124822 23 180 0.0 3.2 0.00 0.03 0.00 83 1034.8
20260904123823 23 135 0.0 1.6 0.00 0.03 0.00 85 1035.0
20260904123721 23 147 1.6 4.8 0.00 0.03 0.00 86 1035.1
20260904122723 22 135 0.0 3.2 0.00 0.03 0.00 88 1035.0
20260904121722 22 135 0.0 0.0 0.00 0.03 0.00 89 1034.8
20260904120822 22 180 0.0 1.6 0.00 0.03 0.00 90 1034.9
20260904113824 21 180 0.0 0.0 0.00 0.03 0.00 90 1034.8
20260904111822 21 180 0.0 0.0 0.00 0.03 0.00 91 1034.6
20260904110822 21 180 0.0 0.0 0.00 0.03 0.00 92 1034.5
20260904105826 21 180 0.0 0.0 0.00 0.03 0.00 92 1034.1
20260904104922 21 180 0.0 0.0 0.00 0.03 0.00 92 1034.2
20260904103923 21 180 0.0 0.0 0.00 0.03 0.00 91 1034.0
20260904102924 22 180 0.0 0.0 0.00 0.03 0.00 91 1034.0
20260904102824 22 180 0.0 0.0 0.00 0.03 0.00 92 1033.9
20260904101723 22 180 0.0 0.0 0.00 0.03 0.00 92 1033.9
20260904100724 22 180 0.0 1.6 0.00 0.03 0.00 92 1034.1
20260904095724 22 180 0.0 0.0 0.00 0.03 0.00 91 1034.0
20260904091821 22 180 0.0 0.0 0.00 0.20 0.00 91 1034.0
20260904090822 22 180 0.0 0.0 0.00 0.25 0.00 92 1034.1
20260904085823 22 180 0.0 0.0 0.00 0.36 0.00 91 1033.9
20260904084822 22 180 0.0 0.0 0.00 0.41 0.00 92 1034.0
20260904083822 22 180 0.0 0.0 0.00 0.43 0.00 91 1034.0
20260904082823 23 180 0.0 0.0 0.00 0.58 0.00 92 1034.0
20260904081922 23 180 0.0 0.0 0.00 0.61 0.00 91 1033.8
20260904080924 23 180 0.0 0.0 0.00 0.61 0.00 91 1033.9
20260904075922 23 180 0.0 0.0 0.00 0.64 0.00 93 1034.1
20260904074022 23 180 0.0 0.0 0.00 0.64 0.00 93 1034.0
20260904073023 23 180 0.0 0.0 0.00 0.64 0.00 92 1033.9
20260904071023 23 180 0.0 0.0 0.00 0.64 0.00 92 1033.7
20260904070922 23 180 0.0 0.0 0.00 0.64 0.00 92 1033.6
20260904065922 23 180 0.0 0.0 0.00 0.64 0.00 90 1033.4
20260904064921 23 180 0.0 0.0 0.00 0.64 0.00 90 1033.1
20260904062925 23 180 0.0 0.0 0.00 0.66 0.00 91 1033.2
20260904062022 23 180 0.0 0.0 0.00 0.69 0.00 91 1033.4
20260904061024 23 180 0.0 0.0 0.00 0.71 0.00 91 1033.4
20260904060023 23 180 0.0 0.0 0.00 0.94 0.00 90 1033.6
20260904055023 23 180 0.0 0.0 0.00 1.55 0.00 91 1034.0
20260904053021 23 180 0.0 0.0 0.00 1.60 0.00 91 1034.2
20260904052022 23 180 0.0 0.0 0.00 1.63 0.00 91 1034.2
20260904051022 23 180 0.0 0.0 0.00 1.63 0.00 91 1034.0
20260904050022 23 180 0.0 0.0 0.00 1.63 0.00 90 1034.3
20260904045121 23 180 0.0 0.0 0.00 1.63 0.00 90 1034.0
20260904044124 23 180 0.0 0.0 0.00 1.63 0.00 91 1034.1
20260904043222 23 180 0.0 0.0 0.00 1.63 0.00 91 1034.3
20260904042222 23 180 0.0 0.0 0.00 1.63 0.00 91 1034.4
20260904041321 23 180 0.0 0.0 0.00 1.63 0.00 91 1034.5
20260904040322 23 180 0.0 0.0 0.00 1.63 0.00 91 1034.8
20260904035326 23 180 0.0 0.0 0.00 1.63 1.63 92 1034.6
20260904034425 23 180 0.0 0.0 0.00 1.63 1.63 91 1034.7
20260904033426 23 180 0.0 0.0 0.00 1.63 1.63 91 1034.9
20260904032425 23 180 0.0 0.0 0.00 1.63 1.63 91 1035.0
20260904032326 23 180 0.0 0.0 0.00 1.63 1.63 92 1035.0
20260904032227 23 180 0.0 0.0 0.00 1.63 1.63 92 1035.1
20260904031226 23 180 0.0 0.0 0.00 1.63 1.63 92 1035.3
20260904030325 23 180 0.0 0.0 0.00 1.63 1.63 91 1035.2
20260904025327 23 180 0.0 0.0 0.00 1.63 1.63 91 1035.2
20260904024325 23 180 0.0 0.0 0.00 1.63 1.63 91 1035.0
20260904023425 24 180 0.0 0.0 0.00 1.63 1.63 90 1035.1
20260904021427 24 180 0.0 0.0 0.00 1.63 1.63 89 1035.3
20260904021329 24 180 0.0 0.0 0.00 1.63 1.63 90 1035.2
20260904021227 24 180 0.0 0.0 0.00 1.63 1.63 90 1035.2
20260904020226 24 180 0.0 0.0 0.00 1.63 1.63 90 1035.4
20260904020125 24 180 0.0 0.0 0.00 1.63 1.63 89 1035.5
20260904020026 24 180 0.0 0.0 0.00 1.63 1.63 89 1035.5
20260904015125 24 180 0.0 0.0 0.00 1.63 1.63 89 1035.4
20260904014126 24 180 0.0 0.0 0.00 1.63 1.63 88 1035.6
20260904014027 24 180 0.0 0.0 0.00 1.63 1.63 88 1035.6
20260904013027 24 180 0.0 0.0 0.00 1.63 1.63 86 1035.6
20260904012026 24 180 0.0 0.0 0.00 1.63 1.63 85 1035.8
20260904011927 24 180 0.0 0.0 0.00 1.63 1.63 85 1035.7
20260904005827 25 180 0.0 0.0 0.00 1.63 1.63 83 1035.8
20260904004827 25 180 0.0 0.0 0.00 1.63 1.63 83 1035.7
20260904003925 25 180 0.0 0.0 0.00 1.63 1.63 83 1035.8
20260904002926 25 180 0.0 0.0 0.00 1.63 1.63 82 1035.4
20260904001926 25 180 0.0 0.0 0.00 1.63 1.63 82 1035.2
20260904001843 25 180 0.0 0.0 0.00 1.63 1.63 82 1035.2
20260904000826 25 180 0.0 0.0 0.00 1.63 1.63 80 1035.0
20260903235825 25 180 0.0 0.0 0.00 1.63 1.63 81 1035.0
20260903233926 25 180 0.0 0.0 0.00 1.63 1.63 81 1035.3
20260903232927 25 180 0.0 0.0 0.03 1.63 1.63 80 1035.1
20260903231928 25 180 0.0 0.0 0.03 1.63 1.63 78 1034.9
20260903225926 26 180 0.0 0.0 0.03 1.63 1.63 78 1034.8
20260903224928 26 180 0.0 0.0 0.03 1.63 1.63 78 1035.0
20260903223927 26 180 0.0 0.0 0.03 1.63 1.63 76 1034.6
20260903222926 26 157 0.0 0.0 0.00 1.60 1.60 75 1034.7
20260903221927 27 157 0.0 0.0 0.00 1.60 1.60 74 1034.6
20260903221026 27 157 0.0 0.0 0.00 1.60 1.60 73 1034.6